www.cux-wetter.de
Wetterdaten: Dienstag, 15.12.2009
Datum Zeit Temp. A. Feuchte A. Luftdruck Regen Wind Richtung Richtung Sonnenschein Solar Taupunkt Windchill Windben
15.12.2009 00:01 -0,2 C 90 % 1022,5 hPa 0,0 l/m 0,6 km/h (0 Bft) W-SW 250 0 min 0 W/m -1,6 C -0,2 C 0,6 km/h (0 Bft)
15.12.2009 00:05 -0,2 C 90 % 1022,5 hPa 0,0 l/m 4,2 km/h (1 Bft) W-SW 250 0 min 0 W/m -1,6 C -0,2 C 4,2 km/h (1 Bft)
15.12.2009 00:10 -0,2 C 90 % 1022,5 hPa 0,0 l/m 3,6 km/h (1 Bft) W-SW 250 0 min 0 W/m -1,6 C -0,2 C 3,6 km/h (1 Bft)
15.12.2009 00:15 -0,2 C 90 % 1022,5 hPa 0,0 l/m 1,4 km/h (1 Bft) W-SW 250 0 min 0 W/m -1,6 C -0,2 C 1,4 km/h (1 Bft)
15.12.2009 00:21 -0,2 C 90 % 1022,5 hPa 0,0 l/m 1,2 km/h (1 Bft) W-SW 250 0 min 0 W/m -1,6 C -0,2 C 1,2 km/h (1 Bft)
15.12.2009 00:25 -0,4 C 90 % 1022,5 hPa 0,0 l/m 3,0 km/h (1 Bft) W-SW 250 0 min 0 W/m -1,8 C -0,4 C 3,0 km/h (1 Bft)
15.12.2009 00:30 -0,4 C 90 % 1022,5 hPa 0,0 l/m 4,6 km/h (1 Bft) W-SW 250 0 min 0 W/m -1,8 C -0,4 C 4,6 km/h (1 Bft)
15.12.2009 00:35 -0,5 C 90 % 1022,5 hPa 0,0 l/m 3,9 km/h (1 Bft) W-SW 250 0 min 0 W/m -1,9 C -0,5 C 3,9 km/h (1 Bft)
15.12.2009 00:40 -0,5 C 90 % 1022,5 hPa 0,0 l/m 4,3 km/h (1 Bft) W-SW 250 0 min 0 W/m -1,9 C -0,5 C 4,3 km/h (1 Bft)
15.12.2009 00:45 -0,7 C 91 % 1022,5 hPa 0,0 l/m 3,5 km/h (1 Bft) W-SW 250 0 min 0 W/m -2,0 C -0,7 C 3,5 km/h (1 Bft)
15.12.2009 00:50 -0,8 C 91 % 1022,5 hPa 0,0 l/m 2,7 km/h (1 Bft) W-SW 250 0 min 0 W/m -2,1 C -0,8 C 2,7 km/h (1 Bft)
15.12.2009 00:55 -0,8 C 91 % 1022,5 hPa 0,0 l/m 0,0 km/h (0 Bft) W-SW 250 0 min 0 W/m -2,1 C -0,8 C 0,0 km/h (0 Bft)
15.12.2009 01:01 -0,9 C 91 % 1022,5 hPa 0,0 l/m 3,8 km/h (1 Bft) W-SW 250 0 min 0 W/m -2,2 C -0,9 C 3,8 km/h (1 Bft)
15.12.2009 01:05 -1,0 C 91 % 1022,5 hPa 0,0 l/m 0,8 km/h (0 Bft) W-SW 250 0 min 0 W/m -2,3 C -1,0 C 0,8 km/h (0 Bft)
15.12.2009 01:10 -0,9 C 91 % 1022,5 hPa 0,0 l/m 4,0 km/h (1 Bft) W-SW 250 0 min 0 W/m -2,2 C -0,9 C 4,0 km/h (1 Bft)
15.12.2009 01:15 -0,9 C 92 % 1022,5 hPa 0,0 l/m 3,7 km/h (1 Bft) W-SW 250 0 min 0 W/m -2,0 C -0,9 C 3,7 km/h (1 Bft)
15.12.2009 01:20 -0,9 C 92 % 1022,5 hPa 0,0 l/m 0,7 km/h (0 Bft) W-SW 250 0 min 0 W/m -2,0 C -0,9 C 0,7 km/h (0 Bft)
15.12.2009 01:25 -0,9 C 92 % 1022,5 hPa 0,0 l/m 2,2 km/h (1 Bft) W-SW 250 0 min 0 W/m -2,0 C -0,9 C 2,2 km/h (1 Bft)
15.12.2009 01:30 -0,9 C 92 % 1022,5 hPa 0,0 l/m 5,9 km/h (2 Bft) W-SW 250 0 min 0 W/m -2,0 C -0,9 C 5,9 km/h (2 Bft)
15.12.2009 01:35 -0,9 C 92 % 1022,5 hPa 0,0 l/m 0,3 km/h (0 Bft) W-SW 250 0 min 0 W/m -2,0 C -0,9 C 0,3 km/h (0 Bft)
15.12.2009 01:40 -0,9 C 92 % 1022,5 hPa 0,0 l/m 0,1 km/h (0 Bft) W-SW 250 0 min 0 W/m -2,0 C -0,9 C 0,1 km/h (0 Bft)
15.12.2009 01:45 -0,9 C 92 % 1022,5 hPa 0,0 l/m 4,0 km/h (1 Bft) W-SW 250 0 min 0 W/m -2,0 C -0,9 C 4,0 km/h (1 Bft)
15.12.2009 01:50 -0,9 C 92 % 1022,5 hPa 0,0 l/m 0,4 km/h (0 Bft) W-SW 250 0 min 0 W/m -2,0 C -0,9 C 0,4 km/h (0 Bft)
15.12.2009 01:55 -0,9 C 91 % 1021,5 hPa 0,0 l/m 0,0 km/h (0 Bft) W-SW 250 0 min 0 W/m -2,2 C -0,9 C 0,0 km/h (0 Bft)
15.12.2009 02:00 -0,9 C 92 % 1021,5 hPa 0,0 l/m 1,5 km/h (1 Bft) W-SW 250 0 min 0 W/m -2,0 C -0,9 C 1,5 km/h (1 Bft)
15.12.2009 02:05 -0,9 C 92 % 1021,5 hPa 0,0 l/m 0,0 km/h (0 Bft) W-SW 250 0 min 0 W/m -2,0 C -0,9 C 0,0 km/h (0 Bft)
15.12.2009 02:10 -1,0 C 92 % 1021,5 hPa 0,0 l/m 4,0 km/h (1 Bft) W-SW 250 0 min 0 W/m -2,1 C -1,0 C 4,0 km/h (1 Bft)
15.12.2009 02:15 -1,1 C 92 % 1021,5 hPa 0,0 l/m 4,2 km/h (1 Bft) W-SW 250 0 min 0 W/m -2,2 C -1,1 C 4,2 km/h (1 Bft)
15.12.2009 02:20 -1,3 C 92 % 1021,5 hPa 0,0 l/m 4,8 km/h (1 Bft) W-SW 250 0 min 0 W/m -2,4 C -1,3 C 4,8 km/h (1 Bft)
15.12.2009 02:26 -1,4 C 92 % 1021,5 hPa 0,0 l/m 3,9 km/h (1 Bft) W-SW 250 0 min 0 W/m -2,5 C -1,4 C 3,9 km/h (1 Bft)
15.12.2009 02:30 -1,4 C 92 % 1021,5 hPa 0,0 l/m 4,2 km/h (1 Bft) W-SW 250 0 min 0 W/m -2,5 C -1,4 C 4,2 km/h (1 Bft)
15.12.2009 02:35 -1,3 C 92 % 1021,5 hPa 0,0 l/m 2,9 km/h (1 Bft) W-SW 250 0 min 0 W/m -2,4 C -1,3 C 2,9 km/h (1 Bft)
15.12.2009 02:40 -1,3 C 92 % 1021,5 hPa 0,0 l/m 1,3 km/h (1 Bft) W-SW 250 0 min 0 W/m -2,4 C -1,3 C 1,3 km/h (1 Bft)
15.12.2009 02:45 -1,4 C 92 % 1021,5 hPa 0,0 l/m 5,4 km/h (2 Bft) W-SW 250 0 min 0 W/m -2,5 C -1,4 C 5,4 km/h (2 Bft)
15.12.2009 02:50 -1,4 C 92 % 1021,5 hPa 0,0 l/m 0,9 km/h (0 Bft) W-SW 250 0 min 0 W/m -2,5 C -1,4 C 0,9 km/h (0 Bft)
15.12.2009 02:55 -1,5 C 92 % 1021,5 hPa 0,0 l/m 5,4 km/h (2 Bft) W-SW 250 0 min 0 W/m -2,6 C -1,5 C 5,4 km/h (2 Bft)
15.12.2009 03:00 -1,5 C 92 % 1021,5 hPa 0,0 l/m 0,2 km/h (0 Bft) W-SW 250 0 min 0 W/m -2,6 C -1,5 C 0,2 km/h (0 Bft)
15.12.2009 03:05 -1,5 C 92 % 1021,5 hPa 0,0 l/m 1,3 km/h (1 Bft) W-SW 250 0 min 0 W/m -2,6 C -1,5 C 1,3 km/h (1 Bft)
15.12.2009 03:10 -1,5 C 92 % 1021,5 hPa 0,0 l/m 2,7 km/h (1 Bft) W-SW 250 0 min 0 W/m -2,6 C -1,5 C 2,7 km/h (1 Bft)
15.12.2009 03:15 -1,6 C 92 % 1021,5 hPa 0,0 l/m 1,6 km/h (1 Bft) W-SW 250 0 min 0 W/m -2,7 C -1,6 C 1,6 km/h (1 Bft)
15.12.2009 03:20 -1,7 C 92 % 1021,5 hPa 0,0 l/m 7,2 km/h (2 Bft) W-SW 250 0 min 0 W/m -2,8 C -2,6 C 7,2 km/h (2 Bft)
15.12.2009 03:26 -1,8 C 92 % 1021,5 hPa 0,0 l/m 6,8 km/h (2 Bft) W-SW 250 0 min 0 W/m -2,9 C -2,2 C 6,8 km/h (2 Bft)
15.12.2009 03:30 -1,8 C 92 % 1021,5 hPa 0,0 l/m 4,6 km/h (1 Bft) W-SW 250 0 min 0 W/m -2,9 C -1,8 C 4,6 km/h (1 Bft)
15.12.2009 03:35 -1,8 C 92 % 1021,5 hPa 0,0 l/m 5,6 km/h (2 Bft) W-SW 250 0 min 0 W/m -2,9 C -1,8 C 5,6 km/h (2 Bft)
15.12.2009 03:40 -1,8 C 92 % 1021,5 hPa 0,0 l/m 5,5 km/h (2 Bft) W-SW 250 0 min 0 W/m -2,9 C -1,8 C 5,5 km/h (2 Bft)
15.12.2009 03:45 -1,8 C 92 % 1021,5 hPa 0,0 l/m 4,7 km/h (1 Bft) W-SW 250 0 min 0 W/m -2,9 C -1,8 C 4,7 km/h (1 Bft)
15.12.2009 03:50 -1,9 C 92 % 1021,5 hPa 0,0 l/m 5,0 km/h (1 Bft) W-SW 250 0 min 0 W/m -3,0 C -1,9 C 5,0 km/h (1 Bft)
15.12.2009 03:55 -2,0 C 92 % 1021,5 hPa 0,0 l/m 4,2 km/h (1 Bft) W-SW 250 0 min 0 W/m -3,1 C -2,0 C 4,2 km/h (1 Bft)
15.12.2009 04:00 -2,1 C 92 % 1021,5 hPa 0,0 l/m 5,8 km/h (2 Bft) W-SW 250 0 min 0 W/m -3,2 C -2,1 C 5,8 km/h (2 Bft)
15.12.2009 04:05 -2,2 C 92 % 1021,5 hPa 0,0 l/m 4,8 km/h (1 Bft) W-SW 250 0 min 0 W/m -3,3 C -2,2 C 4,8 km/h (1 Bft)
15.12.2009 04:10 -2,3 C 92 % 1021,5 hPa 0,0 l/m 3,9 km/h (1 Bft) W-SW 250 0 min 0 W/m -3,4 C -2,3 C 3,9 km/h (1 Bft)
15.12.2009 04:15 -2,4 C 92 % 1021,5 hPa 0,0 l/m 3,4 km/h (1 Bft) W-SW 250 0 min 0 W/m -3,5 C -2,4 C 3,4 km/h (1 Bft)
15.12.2009 04:20 -2,3 C 92 % 1021,5 hPa 0,0 l/m 3,1 km/h (1 Bft) W-SW 250 0 min 0 W/m -3,4 C -2,3 C 3,1 km/h (1 Bft)
15.12.2009 04:26 -2,3 C 92 % 1021,5 hPa 0,0 l/m 5,4 km/h (2 Bft) W-SW 250 0 min 0 W/m -3,4 C -2,3 C 5,4 km/h (2 Bft)
15.12.2009 04:30 -2,4 C 92 % 1021,5 hPa 0,0 l/m 0,6 km/h (0 Bft) W-SW 250 0 min 0 W/m -3,5 C -2,4 C 0,6 km/h (0 Bft)
15.12.2009 04:35 -2,4 C 92 % 1021,5 hPa 0,0 l/m 5,2 km/h (1 Bft) W-SW 250 0 min 0 W/m -3,5 C -2,4 C 5,2 km/h (1 Bft)
15.12.2009 04:40 -2,5 C 92 % 1021,5 hPa 0,0 l/m 7,8 km/h (2 Bft) W-SW 250 0 min 0 W/m -3,6 C -4,1 C 7,8 km/h (2 Bft)
15.12.2009 04:45 -2,5 C 93 % 1021,5 hPa 0,0 l/m 6,0 km/h (2 Bft) W-SW 250 0 min 0 W/m -3,5 C -2,5 C 6,0 km/h (2 Bft)
15.12.2009 04:50 -2,5 C 93 % 1021,5 hPa 0,0 l/m 7,9 km/h (2 Bft) W-SW 250 0 min 0 W/m -3,5 C -4,2 C 7,9 km/h (2 Bft)
15.12.2009 04:55 -2,5 C 93 % 1021,5 hPa 0,0 l/m 4,0 km/h (1 Bft) W-SW 250 0 min 0 W/m -3,5 C -2,5 C 4,0 km/h (1 Bft)
15.12.2009 05:00 -2,6 C 93 % 1021,5 hPa 0,0 l/m 4,3 km/h (1 Bft) W-SW 250 0 min 0 W/m -3,6 C -2,6 C 4,3 km/h (1 Bft)
15.12.2009 05:05 -2,6 C 93 % 1021,5 hPa 0,0 l/m 3,0 km/h (1 Bft) W-SW 250 0 min 0 W/m -3,6 C -2,6 C 3,0 km/h (1 Bft)
15.12.2009 05:10 -2,5 C 93 % 1021,5 hPa 0,0 l/m 0,0 km/h (0 Bft) W-SW 250 0 min 0 W/m -3,5 C -2,5 C 0,0 km/h (0 Bft)
15.12.2009 05:15 -2,4 C 93 % 1021,5 hPa 0,0 l/m 4,2 km/h (1 Bft) W-SW 250 0 min 0 W/m -3,4 C -2,4 C 4,2 km/h (1 Bft)
15.12.2009 05:20 -2,3 C 93 % 1021,5 hPa 0,0 l/m 2,9 km/h (1 Bft) W-SW 250 0 min 0 W/m -3,3 C -2,3 C 2,9 km/h (1 Bft)
15.12.2009 05:26 -2,3 C 92 % 1021,5 hPa 0,0 l/m 0,0 km/h (0 Bft) W-SW 250 0 min 0 W/m -3,4 C -2,3 C 0,0 km/h (0 Bft)
15.12.2009 05:30 -2,4 C 92 % 1021,5 hPa 0,0 l/m 3,5 km/h (1 Bft) W-SW 250 0 min 0 W/m -3,5 C -2,4 C 3,5 km/h (1 Bft)
15.12.2009 05:35 -2,4 C 92 % 1021,5 hPa 0,0 l/m 0,2 km/h (0 Bft) W-SW 250 0 min 0 W/m -3,5 C -2,4 C 0,2 km/h (0 Bft)
15.12.2009 05:40 -2,6 C 92 % 1021,5 hPa 0,0 l/m 0,0 km/h (0 Bft) W-SW 250 0 min 0 W/m -3,7 C -2,6 C 0,0 km/h (0 Bft)
15.12.2009 05:45 -2,6 C 92 % 1021,5 hPa 0,0 l/m 0,0 km/h (0 Bft) W-SW 250 0 min 0 W/m -3,7 C -2,6 C 0,0 km/h (0 Bft)
15.12.2009 05:50 -2,5 C 92 % 1021,5 hPa 0,0 l/m 0,0 km/h (0 Bft) W-SW 250 0 min 0 W/m -3,6 C -2,5 C 0,0 km/h (0 Bft)
15.12.2009 05:55 -2,4 C 92 % 1021,5 hPa 0,0 l/m 0,0 km/h (0 Bft) W-SW 250 0 min 0 W/m -3,5 C -2,4 C 0,0 km/h (0 Bft)
15.12.2009 06:00 -2,4 C 92 % 1021,5 hPa 0,0 l/m 0,0 km/h (0 Bft) W-SW 250 0 min 0 W/m -3,5 C -2,4 C 0,0 km/h (0 Bft)
15.12.2009 06:05 -2,4 C 92 % 1021,5 hPa 0,0 l/m 0,0 km/h (0 Bft) W-SW 250 0 min 0 W/m -3,5 C -2,4 C 0,0 km/h (0 Bft)
15.12.2009 06:10 -2,3 C 92 % 1021,5 hPa 0,0 l/m 0,0 km/h (0 Bft) W-SW 250 0 min 0 W/m -3,4 C -2,3 C 0,0 km/h (0 Bft)
15.12.2009 06:15 -2,3 C 92 % 1021,5 hPa 0,0 l/m 0,0 km/h (0 Bft) W-SW 250 0 min 0 W/m -3,4 C -2,3 C 0,0 km/h (0 Bft)
15.12.2009 06:20 -2,3 C 92 % 1021,5 hPa 0,0 l/m 1,5 km/h (1 Bft) W-SW 250 0 min 0 W/m -3,4 C -2,3 C 1,5 km/h (1 Bft)
15.12.2009 06:25 -2,3 C 92 % 1021,5 hPa 0,0 l/m 3,7 km/h (1 Bft) W-SW 250 0 min 0 W/m -3,4 C -2,3 C 3,7 km/h (1 Bft)
15.12.2009 06:30 -2,3 C 92 % 1021,5 hPa 0,0 l/m 3,9 km/h (1 Bft) W-SW 250 0 min 0 W/m -3,4 C -2,3 C 3,9 km/h (1 Bft)
15.12.2009 06:35 -2,3 C 92 % 1021,5 hPa 0,0 l/m 1,8 km/h (1 Bft) W-SW 250 0 min 0 W/m -3,4 C -2,3 C 1,8 km/h (1 Bft)
15.12.2009 06:40 -2,3 C 92 % 1021,5 hPa 0,0 l/m 5,6 km/h (2 Bft) W-SW 250 0 min 0 W/m -3,4 C -2,3 C 5,6 km/h (2 Bft)
15.12.2009 06:45 -2,4 C 92 % 1021,5 hPa 0,0 l/m 4,3 km/h (1 Bft) W-SW 250 0 min 0 W/m -3,5 C -2,4 C 4,3 km/h (1 Bft)
15.12.2009 06:50 -2,4 C 92 % 1021,5 hPa 0,0 l/m 0,3 km/h (0 Bft) W-SW 250 0 min 0 W/m -3,5 C -2,4 C 0,3 km/h (0 Bft)
15.12.2009 06:55 -2,4 C 92 % 1021,5 hPa 0,0 l/m 2,7 km/h (1 Bft) W-SW 250 0 min 0 W/m -3,5 C -2,4 C 2,7 km/h (1 Bft)
15.12.2009 07:01 -2,4 C 92 % 1021,5 hPa 0,0 l/m 0,0 km/h (0 Bft) W-SW 250 0 min 0 W/m -3,5 C -2,4 C 0,0 km/h (0 Bft)
15.12.2009 07:05 -2,2 C 92 % 1021,5 hPa 0,0 l/m 0,0 km/h (0 Bft) W-SW 250 0 min 0 W/m -3,3 C -2,2 C 0,0 km/h (0 Bft)
15.12.2009 07:10 -2,2 C 92 % 1021,5 hPa 0,0 l/m 0,3 km/h (0 Bft) W-SW 250 0 min 0 W/m -3,3 C -2,2 C 0,3 km/h (0 Bft)
15.12.2009 07:15 -2,2 C 92 % 1021,5 hPa 0,0 l/m 0,0 km/h (0 Bft) W-SW 250 0 min 0 W/m -3,3 C -2,2 C 0,0 km/h (0 Bft)
15.12.2009 07:20 -2,3 C 91 % 1021,5 hPa 0,0 l/m 0,0 km/h (0 Bft) W-SW 250 0 min 0 W/m -3,6 C -2,3 C 0,0 km/h (0 Bft)
15.12.2009 07:25 -2,3 C 91 % 1021,5 hPa 0,0 l/m 1,3 km/h (1 Bft) W-SW 250 0 min 0 W/m -3,6 C -2,3 C 1,3 km/h (1 Bft)
15.12.2009 07:30 -2,3 C 91 % 1020,5 hPa 0,0 l/m 0,6 km/h (0 Bft) W-SW 250 0 min 0 W/m -3,6 C -2,3 C 0,6 km/h (0 Bft)
15.12.2009 07:35 -2,3 C 91 % 1021,5 hPa 0,0 l/m 0,3 km/h (0 Bft) W-SW 250 0 min 0 W/m -3,6 C -2,3 C 0,3 km/h (0 Bft)
15.12.2009 07:40 -2,2 C 91 % 1021,5 hPa 0,0 l/m 3,9 km/h (1 Bft) W-SW 250 0 min 0 W/m -3,5 C -2,2 C 3,9 km/h (1 Bft)
15.12.2009 07:45 -2,2 C 91 % 1021,5 hPa 0,0 l/m 0,7 km/h (0 Bft) W-SW 250 0 min 0 W/m -3,5 C -2,2 C 0,7 km/h (0 Bft)
15.12.2009 07:50 -2,2 C 91 % 1021,5 hPa 0,0 l/m 0,3 km/h (0 Bft) W-SW 250 0 min 0 W/m -3,5 C -2,2 C 0,3 km/h (0 Bft)
15.12.2009 07:55 -2,1 C 91 % 1020,5 hPa 0,0 l/m 3,9 km/h (1 Bft) W-SW 250 0 min 0 W/m -3,4 C -2,1 C 3,9 km/h (1 Bft)
15.12.2009 08:01 -2,0 C 91 % 1020,5 hPa 0,0 l/m 0,6 km/h (0 Bft) W-SW 250 0 min 0 W/m -3,3 C -2,0 C 0,6 km/h (0 Bft)
15.12.2009 08:05 -2,1 C 91 % 1020,5 hPa 0,0 l/m 0,6 km/h (0 Bft) W-SW 250 0 min 0 W/m -3,4 C -2,1 C 0,6 km/h (0 Bft)
15.12.2009 08:10 -2,1 C 91 % 1020,5 hPa 0,0 l/m 0,0 km/h (0 Bft) W-SW 250 0 min 0 W/m -3,4 C -2,1 C 0,0 km/h (0 Bft)
15.12.2009 08:15 -2,1 C 91 % 1021,5 hPa 0,0 l/m 0,3 km/h (0 Bft) W-SW 250 0 min 0 W/m -3,4 C -2,1 C 0,3 km/h (0 Bft)
15.12.2009 08:20 -2,1 C 91 % 1021,5 hPa 0,0 l/m 0,7 km/h (0 Bft) W-SW 250 0 min 0 W/m -3,4 C -2,1 C 0,7 km/h (0 Bft)
15.12.2009 08:25 -2,1 C 91 % 1021,5 hPa 0,0 l/m 0,0 km/h (0 Bft) W-SW 250 0 min 0 W/m -3,4 C -2,1 C 0,0 km/h (0 Bft)
15.12.2009 08:30 -2,1 C 91 % 1021,5 hPa 0,0 l/m 0,1 km/h (0 Bft) W-SW 250 0 min 0 W/m -3,4 C -2,1 C 0,1 km/h (0 Bft)
15.12.2009 08:35 -1,9 C 91 % 1021,5 hPa 0,0 l/m 0,1 km/h (0 Bft) W-SW 250 0 min 0 W/m -3,2 C -1,9 C 0,1 km/h (0 Bft)
15.12.2009 08:40 -1,9 C 91 % 1021,5 hPa 0,0 l/m 0,0 km/h (0 Bft) W-SW 250 0 min 0 W/m -3,2 C -1,9 C 0,0 km/h (0 Bft)
15.12.2009 08:45 -1,8 C 91 % 1021,5 hPa 0,0 l/m 0,6 km/h (0 Bft) W-SW 250 0 min 0 W/m -3,1 C -1,8 C 0,6 km/h (0 Bft)
15.12.2009 08:51 -1,8 C 91 % 1021,5 hPa 0,0 l/m 0,0 km/h (0 Bft) W-SW 250 0 min 0 W/m -3,1 C -1,8 C 0,0 km/h (0 Bft)
15.12.2009 08:55 -1,8 C 91 % 1021,5 hPa 0,0 l/m 0,0 km/h (0 Bft) W-SW 250 0 min 0 W/m -3,1 C -1,8 C 0,0 km/h (0 Bft)
15.12.2009 09:00 -1,8 C 91 % 1021,5 hPa 0,0 l/m 0,0 km/h (0 Bft) W-SW 250 0 min 0 W/m -3,1 C -1,8 C 0,0 km/h (0 Bft)
15.12.2009 09:05 -1,8 C 91 % 1021,5 hPa 0,0 l/m 0,0 km/h (0 Bft) W-SW 250 0 min 0 W/m -3,1 C -1,8 C 0,0 km/h (0 Bft)
15.12.2009 09:11 -1,8 C 91 % 1021,5 hPa 0,0 l/m 0,0 km/h (0 Bft) W-SW 250 0 min 0 W/m -3,1 C -1,8 C 0,0 km/h (0 Bft)
15.12.2009 09:15 -1,8 C 91 % 1021,5 hPa 0,0 l/m 4,3 km/h (1 Bft) W-SW 250 0 min 0 W/m -3,1 C -1,8 C 4,3 km/h (1 Bft)
15.12.2009 09:20 -1,8 C 91 % 1021,5 hPa 0,0 l/m 4,3 km/h (1 Bft) W-SW 250 0 min 0 W/m -3,1 C -1,8 C 4,3 km/h (1 Bft)
15.12.2009 09:25 -1,8 C 91 % 1021,5 hPa 0,0 l/m 0,6 km/h (0 Bft) W-SW 250 0 min 0 W/m -3,1 C -1,8 C 0,6 km/h (0 Bft)
15.12.2009 09:30 -1,8 C 91 % 1021,5 hPa 0,0 l/m 1,1 km/h (1 Bft) W-SW 250 0 min 0 W/m -3,1 C -1,8 C 1,1 km/h (1 Bft)
15.12.2009 09:35 -1,8 C 91 % 1021,5 hPa 0,0 l/m 0,3 km/h (0 Bft) W-SW 250 0 min 0 W/m -3,1 C -1,8 C 0,3 km/h (0 Bft)
15.12.2009 09:40 -1,8 C 91 % 1021,5 hPa 0,0 l/m 0,0 km/h (0 Bft) W-SW 250 0 min 0 W/m -3,1 C -1,8 C 0,0 km/h (0 Bft)
15.12.2009 09:45 -1,8 C 91 % 1021,5 hPa 0,0 l/m 0,0 km/h (0 Bft) W-SW 250 0 min 0 W/m -3,1 C -1,8 C 0,0 km/h (0 Bft)
15.12.2009 09:50 -1,8 C 91 % 1021,5 hPa 0,0 l/m 0,0 km/h (0 Bft) W-SW 250 0 min 0 W/m -3,1 C -1,8 C 0,0 km/h (0 Bft)
15.12.2009 09:55 -1,8 C 91 % 1021,5 hPa 0,0 l/m 0,0 km/h (0 Bft) W-SW 250 0 min 0 W/m -3,1 C -1,8 C 0,0 km/h (0 Bft)
15.12.2009 10:00 -1,8 C 91 % 1021,5 hPa 0,0 l/m 0,0 km/h (0 Bft) W-SW 250 0 min 0 W/m -3,1 C -1,8 C 0,0 km/h (0 Bft)
15.12.2009 10:05 -1,8 C 91 % 1021,5 hPa 0,0 l/m 0,0 km/h (0 Bft) W-SW 250 0 min 0 W/m -3,1 C -1,8 C 0,0 km/h (0 Bft)
15.12.2009 10:10 -1,8 C 91 % 1021,5 hPa 0,0 l/m 0,0 km/h (0 Bft) W-SW 250 0 min 0 W/m -3,1 C -1,8 C 0,0 km/h (0 Bft)
15.12.2009 10:15 -1,8 C 91 % 1021,5 hPa 0,0 l/m 0,0 km/h (0 Bft) W-SW 250 0 min 0 W/m -3,1 C -1,8 C 0,0 km/h (0 Bft)
15.12.2009 10:20 -1,8 C 91 % 1021,5 hPa 0,0 l/m 0,2 km/h (0 Bft) W-SW 250 0 min 0 W/m -3,1 C -1,8 C 0,2 km/h (0 Bft)
15.12.2009 10:25 -1,8 C 91 % 1020,5 hPa 0,0 l/m 0,3 km/h (0 Bft) W-SW 250 0 min 0 W/m -3,1 C -1,8 C 0,3 km/h (0 Bft)
15.12.2009 10:30 -1,8 C 91 % 1020,5 hPa 0,0 l/m 2,7 km/h (1 Bft) W-SW 250 0 min 0 W/m -3,1 C -1,8 C 2,7 km/h (1 Bft)
15.12.2009 10:36 -1,8 C 91 % 1021,5 hPa 0,0 l/m 2,8 km/h (1 Bft) W-SW 250 0 min 0 W/m -3,1 C -1,8 C 2,8 km/h (1 Bft)
15.12.2009 10:40 -1,8 C 91 % 1020,5 hPa 0,0 l/m 4,5 km/h (1 Bft) W-SW 250 0 min 0 W/m -3,1 C -1,8 C 4,5 km/h (1 Bft)
15.12.2009 10:45 -1,8 C 91 % 1020,5 hPa 0,0 l/m 4,5 km/h (1 Bft) W-SW 250 0 min 0 W/m -3,1 C -1,8 C 4,5 km/h (1 Bft)
15.12.2009 10:50 -1,8 C 91 % 1020,5 hPa 0,0 l/m 5,6 km/h (2 Bft) W-SW 250 0 min 0 W/m -3,1 C -1,8 C 5,6 km/h (2 Bft)
15.12.2009 10:55 -1,8 C 91 % 1020,5 hPa 0,0 l/m 4,5 km/h (1 Bft) W-SW 250 0 min 0 W/m -3,1 C -1,8 C 4,5 km/h (1 Bft)
15.12.2009 11:00 -1,8 C 91 % 1020,5 hPa 0,0 l/m 6,3 km/h (2 Bft) W-SW 250 0 min 0 W/m -3,1 C -1,8 C 6,3 km/h (2 Bft)
15.12.2009 11:05 -1,8 C 91 % 1020,5 hPa 0,0 l/m 7,6 km/h (2 Bft) W-SW 250 0 min 0 W/m -3,1 C -3,1 C 7,6 km/h (2 Bft)
15.12.2009 11:10 -1,8 C 91 % 1020,5 hPa 0,0 l/m 4,7 km/h (1 Bft) W-SW 250 0 min 0 W/m -3,1 C -1,8 C 4,7 km/h (1 Bft)
15.12.2009 11:15 -1,8 C 91 % 1020,5 hPa 0,0 l/m 4,9 km/h (1 Bft) W-SW 250 0 min 0 W/m -3,1 C -1,8 C 4,9 km/h (1 Bft)
15.12.2009 11:20 -1,8 C 91 % 1020,5 hPa 0,0 l/m 6,0 km/h (2 Bft) W-SW 250 0 min 0 W/m -3,1 C -1,8 C 6,0 km/h (2 Bft)
15.12.2009 11:25 -1,8 C 91 % 1020,5 hPa 0,0 l/m 10,2 km/h (2 Bft) W-SW 250 0 min 0 W/m -3,1 C -5,6 C 10,2 km/h (2 Bft)
15.12.2009 11:30 -1,8 C 91 % 1020,5 hPa 0,0 l/m 7,0 km/h (2 Bft) W-SW 250 0 min 0 W/m -3,1 C -2,5 C 7,0 km/h (2 Bft)
15.12.2009 11:35 -1,8 C 91 % 1020,5 hPa 0,0 l/m 2,1 km/h (1 Bft) W-SW 250 0 min 0 W/m -3,1 C -1,8 C 2,1 km/h (1 Bft)
15.12.2009 11:40 -1,8 C 91 % 1020,5 hPa 0,0 l/m 0,3 km/h (0 Bft) W-SW 250 0 min 0 W/m -3,1 C -1,8 C 0,3 km/h (0 Bft)
15.12.2009 11:45 -1,8 C 91 % 1020,5 hPa 0,0 l/m 4,4 km/h (1 Bft) W-SW 250 0 min 0 W/m -3,1 C -1,8 C 4,4 km/h (1 Bft)
15.12.2009 11:50 -1,8 C 91 % 1020,5 hPa 0,0 l/m 0,3 km/h (0 Bft) W-SW 250 0 min 0 W/m -3,1 C -1,8 C 0,3 km/h (0 Bft)
15.12.2009 11:55 -1,8 C 91 % 1020,5 hPa 0,0 l/m 0,9 km/h (0 Bft) W-SW 250 0 min 0 W/m -3,1 C -1,8 C 0,9 km/h (0 Bft)
15.12.2009 12:01 -1,8 C 91 % 1020,5 hPa 0,0 l/m 0,1 km/h (0 Bft) W-SW 250 0 min 0 W/m -3,1 C -1,8 C 0,1 km/h (0 Bft)
15.12.2009 12:05 -1,8 C 91 % 1020,5 hPa 0,0 l/m 3,4 km/h (1 Bft) W-SW 250 0 min 0 W/m -3,1 C -1,8 C 3,4 km/h (1 Bft)
15.12.2009 12:10 -1,8 C 91 % 1020,5 hPa 0,0 l/m 4,9 km/h (1 Bft) W-SW 250 0 min 0 W/m -3,1 C -1,8 C 4,9 km/h (1 Bft)
15.12.2009 12:15 -1,8 C 91 % 1020,5 hPa 0,0 l/m 3,7 km/h (1 Bft) W-SW 250 0 min 0 W/m -3,1 C -1,8 C 3,7 km/h (1 Bft)
15.12.2009 12:21 -1,8 C 91 % 1020,5 hPa 0,0 l/m 2,7 km/h (1 Bft) W-SW 250 0 min 0 W/m -3,1 C -1,8 C 2,7 km/h (1 Bft)
15.12.2009 12:25 -1,8 C 91 % 1020,5 hPa 0,0 l/m 4,7 km/h (1 Bft) W-SW 250 0 min 0 W/m -3,1 C -1,8 C 4,7 km/h (1 Bft)
15.12.2009 12:30 -1,8 C 91 % 1020,5 hPa 0,0 l/m 0,5 km/h (0 Bft) W-SW 250 0 min 0 W/m -3,1 C -1,8 C 0,5 km/h (0 Bft)
15.12.2009 12:35 -1,8 C 91 % 1020,5 hPa 0,0 l/m 1,6 km/h (1 Bft) W-SW 250 0 min 0 W/m -3,1 C -1,8 C 1,6 km/h (1 Bft)
15.12.2009 12:40 -1,8 C 91 % 1020,5 hPa 0,0 l/m 0,7 km/h (0 Bft) W-SW 250 0 min 0 W/m -3,1 C -1,8 C 0,7 km/h (0 Bft)
15.12.2009 12:45 1,2 C 86 % 1020,5 hPa 0,0 l/m 7,0 km/h (2 Bft) W-SW 250 0 min 0 W/m -0,9 C 0,6 C 7,0 km/h (2 Bft)
15.12.2009 12:50 1,2 C 86 % 1020,5 hPa 0,0 l/m 5,2 km/h (1 Bft) W-SW 250 0 min 0 W/m -0,9 C 1,2 C 5,2 km/h (1 Bft)
15.12.2009 12:56 1,2 C 86 % 1020,5 hPa 0,0 l/m 7,9 km/h (2 Bft) W-SW 250 0 min 0 W/m -0,9 C -0,3 C 7,9 km/h (2 Bft)
15.12.2009 13:00 1,2 C 86 % 1020,5 hPa 0,0 l/m 8,5 km/h (2 Bft) W-SW 250 0 min 0 W/m -0,9 C -0,8 C 8,5 km/h (2 Bft)
15.12.2009 13:05 1,2 C 86 % 1020,5 hPa 0,0 l/m 7,9 km/h (2 Bft) W-SW 250 0 min 0 W/m -0,9 C -0,3 C 7,9 km/h (2 Bft)
15.12.2009 13:10 1,2 C 86 % 1020,5 hPa 0,0 l/m 6,1 km/h (2 Bft) W-SW 250 0 min 0 W/m -0,9 C 1,2 C 6,1 km/h (2 Bft)
15.12.2009 13:15 1,2 C 86 % 1020,5 hPa 0,0 l/m 6,3 km/h (2 Bft) W-SW 250 0 min 0 W/m -0,9 C 1,2 C 6,3 km/h (2 Bft)
15.12.2009 13:20 1,2 C 86 % 1019,5 hPa 0,0 l/m 5,4 km/h (2 Bft) W-SW 250 0 min 0 W/m -0,9 C 1,2 C 5,4 km/h (2 Bft)
15.12.2009 13:25 1,2 C 87 % 1019,5 hPa 0,0 l/m 5,5 km/h (2 Bft) W-SW 250 0 min 0 W/m -0,7 C 1,2 C 5,5 km/h (2 Bft)
15.12.2009 13:30 1,2 C 87 % 1019,5 hPa 0,0 l/m 5,6 km/h (2 Bft) W-SW 250 0 min 0 W/m -0,7 C 1,2 C 5,6 km/h (2 Bft)
15.12.2009 13:35 1,3 C 87 % 1019,5 hPa 0,0 l/m 5,4 km/h (2 Bft) W-SW 250 0 min 0 W/m -0,6 C 1,3 C 5,4 km/h (2 Bft)
15.12.2009 13:40 1,3 C 87 % 1019,5 hPa 0,0 l/m 4,3 km/h (1 Bft) W-SW 250 0 min 0 W/m -0,6 C 1,3 C 4,3 km/h (1 Bft)
15.12.2009 13:46 1,3 C 87 % 1019,5 hPa 0,0 l/m 5,0 km/h (1 Bft) W-SW 250 0 min 0 W/m -0,6 C 1,3 C 5,0 km/h (1 Bft)
15.12.2009 13:50 1,5 C 88 % 1019,5 hPa 0,0 l/m 3,5 km/h (1 Bft) W-SW 250 0 min 0 W/m -0,3 C 1,5 C 3,5 km/h (1 Bft)
15.12.2009 13:55 1,5 C 88 % 1019,5 hPa 0,0 l/m 7,8 km/h (2 Bft) W-SW 250 0 min 0 W/m -0,3 C 0,1 C 7,8 km/h (2 Bft)
15.12.2009 14:00 1,5 C 88 % 1019,5 hPa 0,0 l/m 5,3 km/h (1 Bft) W-SW 250 0 min 0 W/m -0,3 C 1,5 C 5,3 km/h (1 Bft)
15.12.2009 14:05 1,5 C 87 % 1019,5 hPa 0,0 l/m 5,4 km/h (2 Bft) W-SW 250 0 min 0 W/m -0,4 C 1,5 C 5,4 km/h (2 Bft)
15.12.2009 14:10 1,5 C 87 % 1019,5 hPa 0,0 l/m 6,9 km/h (2 Bft) W-SW 250 0 min 0 W/m -0,4 C 1,0 C 6,9 km/h (2 Bft)
15.12.2009 14:15 1,5 C 86 % 1019,5 hPa 0,0 l/m 7,0 km/h (2 Bft) W-SW 250 0 min 0 W/m -0,6 C 0,9 C 7,0 km/h (2 Bft)
15.12.2009 14:20 1,5 C 86 % 1019,5 hPa 0,0 l/m 7,4 km/h (2 Bft) W-SW 250 0 min 0 W/m -0,6 C 0,5 C 7,4 km/h (2 Bft)
15.12.2009 14:25 1,4 C 85 % 1019,5 hPa 0,0 l/m 7,2 km/h (2 Bft) W-SW 250 0 min 0 W/m -0,8 C 0,6 C 7,2 km/h (2 Bft)
15.12.2009 14:30 1,4 C 84 % 1019,5 hPa 0,0 l/m 6,7 km/h (2 Bft) W-SW 250 0 min 0 W/m -1,0 C 1,1 C 6,7 km/h (2 Bft)
15.12.2009 14:35 1,4 C 84 % 1019,5 hPa 0,0 l/m 6,9 km/h (2 Bft) W-SW 250 0 min 0 W/m -1,0 C 0,9 C 6,9 km/h (2 Bft)
15.12.2009 14:40 1,4 C 84 % 1019,5 hPa 0,0 l/m 6,8 km/h (2 Bft) W-SW 250 0 min 0 W/m -1,0 C 1,0 C 6,8 km/h (2 Bft)
15.12.2009 14:45 1,2 C 83 % 1019,5 hPa 0,0 l/m 7,1 km/h (2 Bft) W-SW 245 0 min 0 W/m -1,4 C 0,5 C 7,1 km/h (2 Bft)
15.12.2009 14:50 1,2 C 83 % 1019,5 hPa 0,0 l/m 6,1 km/h (2 Bft) W-SW 250 0 min 0 W/m -1,4 C 1,2 C 6,1 km/h (2 Bft)
15.12.2009 14:55 1,2 C 83 % 1019,5 hPa 0,0 l/m 3,3 km/h (1 Bft) W-SW 250 0 min 0 W/m -1,4 C 1,2 C 3,3 km/h (1 Bft)
15.12.2009 15:00 0,9 C 83 % 1019,5 hPa 0,0 l/m 4,0 km/h (1 Bft) W-SW 250 0 min 0 W/m -1,7 C 0,9 C 4,0 km/h (1 Bft)
15.12.2009 15:05 0,8 C 83 % 1019,5 hPa 0,0 l/m 4,2 km/h (1 Bft) W-SW 250 0 min 0 W/m -1,8 C 0,8 C 4,2 km/h (1 Bft)
15.12.2009 15:10 0,7 C 83 % 1019,5 hPa 0,0 l/m 4,5 km/h (1 Bft) W-SW 250 0 min 0 W/m -1,8 C 0,7 C 4,5 km/h (1 Bft)
15.12.2009 15:15 0,7 C 83 % 1019,5 hPa 0,0 l/m 0,2 km/h (0 Bft) W-SW 250 0 min 0 W/m -1,8 C 0,7 C 0,2 km/h (0 Bft)
15.12.2009 15:21 0,7 C 83 % 1018,5 hPa 0,0 l/m 2,3 km/h (1 Bft) W-SW 250 0 min 0 W/m -1,8 C 0,7 C 2,3 km/h (1 Bft)
15.12.2009 15:25 0,7 C 84 % 1018,5 hPa 0,0 l/m 5,3 km/h (1 Bft) W-SW 250 0 min 0 W/m -1,7 C 0,7 C 5,3 km/h (1 Bft)
15.12.2009 15:30 0,6 C 84 % 1018,5 hPa 0,0 l/m 4,6 km/h (1 Bft) W-SW 250 0 min 0 W/m -1,8 C 0,6 C 4,6 km/h (1 Bft)
15.12.2009 15:35 0,6 C 84 % 1018,5 hPa 0,0 l/m 4,6 km/h (1 Bft) W-SW 250 0 min 0 W/m -1,8 C 0,6 C 4,6 km/h (1 Bft)
15.12.2009 15:40 0,6 C 84 % 1018,5 hPa 0,0 l/m 3,4 km/h (1 Bft) W-SW 250 0 min 0 W/m -1,8 C 0,6 C 3,4 km/h (1 Bft)
15.12.2009 15:45 0,5 C 83 % 1018,5 hPa 0,0 l/m 2,8 km/h (1 Bft) W-SW 250 0 min 0 W/m -2,0 C 0,5 C 2,8 km/h (1 Bft)
15.12.2009 15:50 0,5 C 83 % 1018,5 hPa 0,0 l/m 3,7 km/h (1 Bft) W-SW 250 0 min 0 W/m -2,0 C 0,5 C 3,7 km/h (1 Bft)
15.12.2009 15:55 0,5 C 83 % 1018,5 hPa 0,0 l/m 3,4 km/h (1 Bft) W-SW 250 0 min 0 W/m -2,0 C 0,5 C 3,4 km/h (1 Bft)
15.12.2009 16:00 0,4 C 83 % 1018,5 hPa 0,0 l/m 1,6 km/h (1 Bft) W-SW 250 0 min 0 W/m -2,1 C 0,4 C 1,6 km/h (1 Bft)
15.12.2009 16:05 0,3 C 83 % 1018,5 hPa 0,0 l/m 3,8 km/h (1 Bft) W-SW 250 0 min 0 W/m -2,2 C 0,3 C 3,8 km/h (1 Bft)
15.12.2009 16:11 0,3 C 83 % 1018,5 hPa 0,0 l/m 4,2 km/h (1 Bft) W-SW 250 0 min 0 W/m -2,2 C 0,3 C 4,2 km/h (1 Bft)
15.12.2009 16:15 0,2 C 83 % 1018,5 hPa 0,0 l/m 3,0 km/h (1 Bft) W-SW 250 0 min 0 W/m -2,3 C 0,2 C 3,0 km/h (1 Bft)
15.12.2009 16:20 0,2 C 83 % 1018,5 hPa 0,0 l/m 3,0 km/h (1 Bft) W-SW 250 0 min 0 W/m -2,3 C 0,2 C 3,0 km/h (1 Bft)
15.12.2009 16:25 0,2 C 83 % 1018,5 hPa 0,0 l/m 0,0 km/h (0 Bft) W-SW 250 0 min 0 W/m -2,3 C 0,2 C 0,0 km/h (0 Bft)
15.12.2009 16:30 0,3 C 83 % 1018,5 hPa 0,0 l/m 3,3 km/h (1 Bft) W-SW 250 0 min 0 W/m -2,2 C 0,3 C 3,3 km/h (1 Bft)
15.12.2009 16:32 0,3 C 83 % 1025,5 hPa 0,0 l/m 3,3 km/h (1 Bft) W-SW 250 0 min 0 W/m -2,2 C 0,3 C 3,3 km/h (1 Bft)
15.12.2009 16:37 0,2 C 83 % 1018,5 hPa 0,0 l/m 4,2 km/h (1 Bft) W-SW 250 0 min 0 W/m -2,3 C 0,2 C 4,2 km/h (1 Bft)
15.12.2009 16:42 0,3 C 82 % 1018,5 hPa 0,0 l/m 4,3 km/h (1 Bft) W-SW 250 0 min 0 W/m -2,4 C 0,3 C 4,3 km/h (1 Bft)
15.12.2009 16:47 0,3 C 82 % 1018,5 hPa 0,0 l/m 4,7 km/h (1 Bft) W-SW 250 0 min 0 W/m -2,4 C 0,3 C 4,7 km/h (1 Bft)
15.12.2009 16:52 0,3 C 82 % 1018,5 hPa 0,0 l/m 4,8 km/h (1 Bft) W-SW 250 0 min 0 W/m -2,4 C 0,3 C 4,8 km/h (1 Bft)
15.12.2009 16:57 0,3 C 80 % 1018,5 hPa 0,0 l/m 6,7 km/h (2 Bft) W-SW 250 0 min 0 W/m -2,7 C 0,0 C 6,7 km/h (2 Bft)
15.12.2009 17:02 0,4 C 80 % 1018,5 hPa 0,0 l/m 8,1 km/h (2 Bft) W-SW 250 0 min 0 W/m -2,6 C -1,3 C 8,1 km/h (2 Bft)
15.12.2009 17:07 0,4 C 80 % 1018,5 hPa 0,0 l/m 8,2 km/h (2 Bft) W 275 0 min 0 W/m -2,6 C -1,4 C 8,2 km/h (2 Bft)
15.12.2009 17:12 0,4 C 80 % 1018,5 hPa 0,0 l/m 8,4 km/h (2 Bft) W-NW 285 0 min 0 W/m -2,6 C -1,6 C 8,4 km/h (2 Bft)
15.12.2009 17:17 0,6 C 79 % 1018,5 hPa 0,0 l/m 10,2 km/h (2 Bft) W-NW 285 0 min 0 W/m -2,6 C -2,9 C 10,2 km/h (2 Bft)
15.12.2009 17:22 0,6 C 78 % 1018,5 hPa 0,0 l/m 6,9 km/h (2 Bft) W 270 0 min 0 W/m -2,8 C 0,1 C 6,9 km/h (2 Bft)
15.12.2009 17:27 0,6 C 78 % 1018,5 hPa 0,0 l/m 6,7 km/h (2 Bft) W 260 0 min 0 W/m -2,8 C 0,3 C 6,7 km/h (2 Bft)
15.12.2009 17:32 0,7 C 79 % 1018,5 hPa 0,0 l/m 8,9 km/h (2 Bft) W-NW 285 0 min 0 W/m -2,5 C -1,7 C 8,9 km/h (2 Bft)
15.12.2009 17:37 0,7 C 79 % 1018,5 hPa 0,0 l/m 5,1 km/h (1 Bft) W 265 0 min 0 W/m -2,5 C 0,7 C 5,1 km/h (1 Bft)
15.12.2009 17:42 0,7 C 79 % 1018,5 hPa 0,0 l/m 3,3 km/h (1 Bft) W 265 0 min 0 W/m -2,5 C 0,7 C 3,3 km/h (1 Bft)
15.12.2009 17:47 0,5 C 79 % 1018,5 hPa 0,0 l/m 5,7 km/h (2 Bft) W 265 0 min 0 W/m -2,7 C 0,5 C 5,7 km/h (2 Bft)
15.12.2009 17:52 0,5 C 79 % 1018,5 hPa 0,0 l/m 3,0 km/h (1 Bft) W 265 0 min 0 W/m -2,7 C 0,5 C 3,0 km/h (1 Bft)
15.12.2009 17:57 0,5 C 79 % 1018,5 hPa 0,0 l/m 5,0 km/h (1 Bft) W 265 0 min 0 W/m -2,7 C 0,5 C 5,0 km/h (1 Bft)
15.12.2009 18:02 0,4 C 79 % 1018,5 hPa 0,0 l/m 4,7 km/h (1 Bft) W 265 0 min 0 W/m -2,8 C 0,4 C 4,7 km/h (1 Bft)
15.12.2009 18:07 0,4 C 79 % 1018,5 hPa 0,0 l/m 5,5 km/h (2 Bft) W 265 0 min 0 W/m -2,8 C 0,4 C 5,5 km/h (2 Bft)
15.12.2009 18:12 0,4 C 79 % 1017,5 hPa 0,0 l/m 6,8 km/h (2 Bft) W 260 0 min 0 W/m -2,8 C 0,0 C 6,8 km/h (2 Bft)
15.12.2009 18:17 0,4 C 79 % 1017,5 hPa 0,0 l/m 4,0 km/h (1 Bft) W 275 0 min 0 W/m -2,8 C 0,4 C 4,0 km/h (1 Bft)
15.12.2009 18:22 0,4 C 79 % 1017,5 hPa 0,0 l/m 8,9 km/h (2 Bft) W 260 0 min 0 W/m -2,8 C -2,1 C 8,9 km/h (2 Bft)
15.12.2009 18:27 0,4 C 79 % 1017,5 hPa 0,0 l/m 6,5 km/h (2 Bft) W 265 0 min 0 W/m -2,8 C 0,3 C 6,5 km/h (2 Bft)
15.12.2009 18:32 0,2 C 78 % 1017,5 hPa 0,0 l/m 9,2 km/h (2 Bft) W-NW 290 0 min 0 W/m -3,2 C -2,5 C 9,2 km/h (2 Bft)
15.12.2009 18:37 0,2 C 78 % 1017,5 hPa 0,0 l/m 7,0 km/h (2 Bft) NW 305 0 min 0 W/m -3,2 C -0,4 C 7,0 km/h (2 Bft)
15.12.2009 18:42 0,2 C 78 % 1017,5 hPa 0,0 l/m 7,8 km/h (2 Bft) W-NW 290 0 min 0 W/m -3,2 C -1,2 C 7,8 km/h (2 Bft)
15.12.2009 18:47 0,2 C 78 % 1017,5 hPa 0,0 l/m 8,1 km/h (2 Bft) W-NW 285 0 min 0 W/m -3,2 C -1,5 C 8,1 km/h (2 Bft)
15.12.2009 18:52 0,2 C 78 % 1017,5 hPa 0,0 l/m 7,8 km/h (2 Bft) W-NW 290 0 min 0 W/m -3,2 C -1,2 C 7,8 km/h (2 Bft)
15.12.2009 18:57 0,2 C 78 % 1017,5 hPa 0,0 l/m 3,6 km/h (1 Bft) W-NW 285 0 min 0 W/m -3,2 C 0,2 C 3,6 km/h (1 Bft)
15.12.2009 19:02 0,2 C 78 % 1017,5 hPa 0,0 l/m 5,6 km/h (2 Bft) W-NW 285 0 min 0 W/m -3,2 C 0,2 C 5,6 km/h (2 Bft)
15.12.2009 19:07 0,2 C 78 % 1017,5 hPa 0,0 l/m 4,3 km/h (1 Bft) W-NW 285 0 min 0 W/m -3,2 C 0,2 C 4,3 km/h (1 Bft)
15.12.2009 19:12 0,2 C 78 % 1017,5 hPa 0,0 l/m 2,5 km/h (1 Bft) W-NW 285 0 min 0 W/m -3,2 C 0,2 C 2,5 km/h (1 Bft)
15.12.2009 19:17 0,2 C 78 % 1017,5 hPa 0,0 l/m 6,4 km/h (2 Bft) W-NW 285 0 min 0 W/m -3,2 C 0,2 C 6,4 km/h (2 Bft)
15.12.2009 19:22 0,2 C 78 % 1017,5 hPa 0,0 l/m 5,2 km/h (1 Bft) W-NW 285 0 min 0 W/m -3,2 C 0,2 C 5,2 km/h (1 Bft)
15.12.2009 19:27 0,2 C 78 % 1017,5 hPa 0,0 l/m 5,4 km/h (2 Bft) W-NW 285 0 min 0 W/m -3,2 C 0,2 C 5,4 km/h (2 Bft)
15.12.2009 19:32 0,2 C 78 % 1017,5 hPa 0,0 l/m 5,4 km/h (2 Bft) W-NW 285 0 min 0 W/m -3,2 C 0,2 C 5,4 km/h (2 Bft)
15.12.2009 19:37 0,2 C 78 % 1017,5 hPa 0,0 l/m 3,9 km/h (1 Bft) W-NW 285 0 min 0 W/m -3,2 C 0,2 C 3,9 km/h (1 Bft)
15.12.2009 19:42 0,2 C 78 % 1017,5 hPa 0,0 l/m 6,1 km/h (2 Bft) W 280 0 min 0 W/m -3,2 C 0,2 C 6,1 km/h (2 Bft)
15.12.2009 19:47 0,2 C 78 % 1017,5 hPa 0,0 l/m 4,4 km/h (1 Bft) W 270 0 min 0 W/m -3,2 C 0,2 C 4,4 km/h (1 Bft)
15.12.2009 19:52 0,2 C 78 % 1017,5 hPa 0,0 l/m 6,1 km/h (2 Bft) W 270 0 min 0 W/m -3,2 C 0,2 C 6,1 km/h (2 Bft)
15.12.2009 19:57 0,2 C 78 % 1017,5 hPa 0,0 l/m 2,5 km/h (1 Bft) W 270 0 min 0 W/m -3,2 C 0,2 C 2,5 km/h (1 Bft)
15.12.2009 20:02 0,2 C 78 % 1017,5 hPa 0,0 l/m 5,0 km/h (1 Bft) W 270 0 min 0 W/m -3,2 C 0,2 C 5,0 km/h (1 Bft)
15.12.2009 20:07 0,1 C 80 % 1017,5 hPa 0,0 l/m 0,0 km/h (0 Bft) W 270 0 min 0 W/m -2,9 C 0,1 C 0,0 km/h (0 Bft)
15.12.2009 20:12 0,1 C 80 % 1017,5 hPa 0,0 l/m 5,9 km/h (2 Bft) W-SW 255 0 min 0 W/m -2,9 C 0,1 C 5,9 km/h (2 Bft)
15.12.2009 20:17 0,1 C 80 % 1017,5 hPa 0,0 l/m 5,9 km/h (2 Bft) SW 235 0 min 0 W/m -2,9 C 0,1 C 5,9 km/h (2 Bft)
15.12.2009 20:21 0,1 C 80 % 1017,5 hPa 0,0 l/m 5,7 km/h (2 Bft) SW 230 0 min 0 W/m -2,9 C 0,1 C 5,7 km/h (2 Bft)
15.12.2009 20:27 0,1 C 80 % 1017,5 hPa 0,0 l/m 8,7 km/h (2 Bft) SW 235 0 min 0 W/m -2,9 C -2,2 C 8,7 km/h (2 Bft)
15.12.2009 20:32 0,1 C 80 % 1017,5 hPa 0,0 l/m 8,0 km/h (2 Bft) W-SW 250 0 min 0 W/m -2,9 C -1,5 C 8,0 km/h (2 Bft)
15.12.2009 20:37 0,1 C 80 % 1017,5 hPa 0,0 l/m 8,0 km/h (2 Bft) W-SW 250 0 min 0 W/m -2,9 C -1,5 C 8,0 km/h (2 Bft)
15.12.2009 20:42 -0,8 C 81 % 1017,5 hPa 0,0 l/m 7,2 km/h (2 Bft) W-SW 250 0 min 0 W/m -3,6 C -1,7 C 7,2 km/h (2 Bft)
15.12.2009 20:47 -0,8 C 81 % 1017,5 hPa 0,0 l/m 6,7 km/h (2 Bft) W-SW 250 0 min 0 W/m -3,6 C -1,1 C 6,7 km/h (2 Bft)
15.12.2009 20:52 -0,8 C 81 % 1017,5 hPa 0,0 l/m 6,7 km/h (2 Bft) W-SW 255 0 min 0 W/m -3,6 C -1,1 C 6,7 km/h (2 Bft)
15.12.2009 20:57 -0,8 C 81 % 1017,5 hPa 0,0 l/m 6,3 km/h (2 Bft) W-SW 255 0 min 0 W/m -3,6 C -0,8 C 6,3 km/h (2 Bft)
15.12.2009 21:02 -0,9 C 82 % 1017,5 hPa 0,0 l/m 5,8 km/h (2 Bft) W-SW 255 0 min 0 W/m -3,6 C -0,9 C 5,8 km/h (2 Bft)
15.12.2009 21:07 -0,9 C 82 % 1017,5 hPa 0,0 l/m 7,9 km/h (2 Bft) W-SW 255 0 min 0 W/m -3,6 C -2,5 C 7,9 km/h (2 Bft)
15.12.2009 21:12 -0,9 C 82 % 1016,5 hPa 0,0 l/m 9,0 km/h (2 Bft) W-SW 255 0 min 0 W/m -3,6 C -3,6 C 9,0 km/h (2 Bft)
15.12.2009 21:17 -0,9 C 82 % 1016,5 hPa 0,0 l/m 8,1 km/h (2 Bft) W-SW 255 0 min 0 W/m -3,6 C -2,7 C 8,1 km/h (2 Bft)
15.12.2009 21:22 -0,9 C 82 % 1016,5 hPa 0,0 l/m 7,7 km/h (2 Bft) W-SW 255 0 min 0 W/m -3,6 C -2,3 C 7,7 km/h (2 Bft)
15.12.2009 21:27 -0,9 C 82 % 1016,5 hPa 0,0 l/m 7,4 km/h (2 Bft) W-SW 255 0 min 0 W/m -3,6 C -2,0 C 7,4 km/h (2 Bft)
15.12.2009 21:32 -1,0 C 82 % 1016,5 hPa 0,0 l/m 7,5 km/h (2 Bft) W-SW 250 0 min 0 W/m -3,7 C -2,2 C 7,5 km/h (2 Bft)
15.12.2009 21:37 -1,0 C 83 % 1016,5 hPa 0,0 l/m 9,0 km/h (2 Bft) W-SW 255 0 min 0 W/m -3,5 C -3,7 C 9,0 km/h (2 Bft)
15.12.2009 21:42 -1,0 C 83 % 1016,5 hPa 0,0 l/m 7,8 km/h (2 Bft) W-SW 255 0 min 0 W/m -3,5 C -2,5 C 7,8 km/h (2 Bft)
15.12.2009 21:47 -1,0 C 83 % 1016,5 hPa 0,0 l/m 8,7 km/h (2 Bft) W-SW 255 0 min 0 W/m -3,5 C -3,4 C 8,7 km/h (2 Bft)
15.12.2009 21:52 -1,0 C 83 % 1016,5 hPa 0,0 l/m 8,5 km/h (2 Bft) W-SW 255 0 min 0 W/m -3,5 C -3,2 C 8,5 km/h (2 Bft)
15.12.2009 21:57 -1,0 C 83 % 1016,5 hPa 0,0 l/m 10,6 km/h (2 Bft) W-SW 255 0 min 0 W/m -3,5 C -5,1 C 10,6 km/h (2 Bft)
15.12.2009 22:02 -1,0 C 82 % 1016,5 hPa 0,0 l/m 9,6 km/h (2 Bft) W-SW 245 0 min 0 W/m -3,7 C -4,2 C 9,6 km/h (2 Bft)
15.12.2009 22:07 -1,0 C 83 % 1016,5 hPa 0,0 l/m 11,0 km/h (2 Bft) W-SW 240 0 min 0 W/m -3,5 C -5,4 C 11,0 km/h (2 Bft)
15.12.2009 22:12 -1,0 C 83 % 1016,5 hPa 0,0 l/m 8,7 km/h (2 Bft) W-SW 245 0 min 0 W/m -3,5 C -3,4 C 8,7 km/h (2 Bft)
15.12.2009 22:17 -1,0 C 83 % 1016,5 hPa 0,0 l/m 9,3 km/h (2 Bft) W-SW 245 0 min 0 W/m -3,5 C -3,9 C 9,3 km/h (2 Bft)
15.12.2009 22:22 -1,1 C 84 % 1016,5 hPa 0,0 l/m 7,2 km/h (2 Bft) W-SW 240 0 min 0 W/m -3,4 C -2,0 C 7,2 km/h (2 Bft)
15.12.2009 22:27 -1,1 C 84 % 1016,5 hPa 0,0 l/m 8,7 km/h (2 Bft) W-SW 240 0 min 0 W/m -3,4 C -3,5 C 8,7 km/h (2 Bft)
15.12.2009 22:32 -1,1 C 84 % 1016,5 hPa 0,0 l/m 6,5 km/h (2 Bft) W-SW 240 0 min 0 W/m -3,4 C -1,2 C 6,5 km/h (2 Bft)
15.12.2009 22:37 -1,1 C 84 % 1016,5 hPa 0,0 l/m 6,8 km/h (2 Bft) W-SW 240 0 min 0 W/m -3,4 C -1,5 C 6,8 km/h (2 Bft)
15.12.2009 22:42 -1,2 C 85 % 1016,5 hPa 0,0 l/m 5,5 km/h (2 Bft) W-SW 240 0 min 0 W/m -3,4 C -1,2 C 5,5 km/h (2 Bft)
15.12.2009 22:47 -1,2 C 85 % 1016,5 hPa 0,0 l/m 6,8 km/h (2 Bft) W-SW 240 0 min 0 W/m -3,4 C -1,6 C 6,8 km/h (2 Bft)
15.12.2009 22:52 -1,2 C 85 % 1016,5 hPa 0,0 l/m 5,6 km/h (2 Bft) W-SW 240 0 min 0 W/m -3,4 C -1,2 C 5,6 km/h (2 Bft)
15.12.2009 22:57 -1,2 C 85 % 1016,5 hPa 0,0 l/m 4,5 km/h (1 Bft) W-SW 240 0 min 0 W/m -3,4 C -1,2 C 4,5 km/h (1 Bft)
15.12.2009 23:02 -1,2 C 85 % 1016,5 hPa 0,0 l/m 3,0 km/h (1 Bft) W-SW 240 0 min 0 W/m -3,4 C -1,2 C 3,0 km/h (1 Bft)
15.12.2009 23:07 -1,2 C 85 % 1016,5 hPa 0,0 l/m 6,4 km/h (2 Bft) W-SW 240 0 min 0 W/m -3,4 C -1,2 C 6,4 km/h (2 Bft)
15.12.2009 23:12 -0,9 C 84 % 1016,5 hPa 0,0 l/m 4,2 km/h (1 Bft) W-SW 240 0 min 0 W/m -3,3 C -0,9 C 4,2 km/h (1 Bft)
15.12.2009 23:17 -0,9 C 84 % 1016,5 hPa 0,0 l/m 6,7 km/h (2 Bft) W-SW 240 0 min 0 W/m -3,3 C -1,2 C 6,7 km/h (2 Bft)
15.12.2009 23:22 -0,8 C 83 % 1016,5 hPa 0,0 l/m 8,3 km/h (2 Bft) W-SW 240 0 min 0 W/m -3,3 C -2,8 C 8,3 km/h (2 Bft)
15.12.2009 23:27 -0,8 C 83 % 1016,5 hPa 0,0 l/m 7,4 km/h (2 Bft) W-SW 240 0 min 0 W/m -3,3 C -1,9 C 7,4 km/h (2 Bft)
15.12.2009 23:32 -0,8 C 81 % 1016,5 hPa 0,0 l/m 7,8 km/h (2 Bft) W-SW 240 0 min 0 W/m -3,6 C -2,3 C 7,8 km/h (2 Bft)
15.12.2009 23:37 -0,7 C 82 % 1016,5 hPa 0,0 l/m 5,6 km/h (2 Bft) W-SW 240 0 min 0 W/m -3,4 C -0,7 C 5,6 km/h (2 Bft)
15.12.2009 23:42 -0,7 C 82 % 1015,5 hPa 0,0 l/m 5,9 km/h (2 Bft) W-SW 240 0 min 0 W/m -3,4 C -0,7 C 5,9 km/h (2 Bft)
15.12.2009 23:47 -0,7 C 80 % 1015,5 hPa 0,0 l/m 8,3 km/h (2 Bft) W-SW 240 0 min 0 W/m -3,7 C -2,7 C 8,3 km/h (2 Bft)
15.12.2009 23:52 -0,6 C 80 % 1015,5 hPa 0,0 l/m 9,8 km/h (2 Bft) W-SW 240 0 min 0 W/m -3,6 C -3,9 C 9,8 km/h (2 Bft)
15.12.2009 23:57 -0,6 C 77 % 1015,5 hPa 0,0 l/m 14,0 km/h (3 Bft) W-SW 250 0 min 0 W/m -4,1 C -7,1 C 14,0 km/h (3 Bft)
_ Min-Zeit 05:00 23:57 23:42 - 00:55 - - - - 23:57 23:57 00:55
Minimum _ -2,6 C 77 % 1015,5 hPa - 0,0 km/h (0 Bft) - - - - -4,1 C -7,1 C 0,0 km/h (0 Bft)
_ Max-Zeit 13:50 04:45 16:32 00:01 23:57 - - 00:01 00:01 13:50 13:50 23:57
Maximum _ 1,5 C 93 % 1025,5 hPa 0,0 l/m 14,0 km/h
W-SW (3 Bft)
- - 0 min 0 W/m -0,3 C 1,5 C 14,0 km/h
W-SW (3 Bft)
Durchschnitt _ -0,9 C 87 % 1019,8 hPa #0,0 l/m 4,2 km/h (1 Bft) W-SW - #0 min. 0 W/m -2,8 C -1,2 C 4,2 km/h (1 Bft)
copyright by Holger Just